Change the Weather History Date:

Sunday, February 2, 2014

  Actual Average Record
Temperature  
Mean Temperature 14 °F -  
Max Temperature 27 °F 36 °F 70 °F (1962)
Min Temperature 1 °F 15 °F -8 °F (1989)
Degree Days  
Heating Degree Days 51    
Moisture  
Dew Point 7 °F    
Average Humidity 73    
Maximum Humidity 88    
Minimum Humidity 43    
Precipitation  
Precipitation 0.00 in - - ()
Sea Level Pressure  
Sea Level Pressure 30.36 in    
Wind  
Wind Speed 6 mph (South)    
Max Wind Speed 12 mph    
Max Gust Speed -    
Visibility 10 miles    
Events      
Averages and records for this station are not official NWS values.
T = Trace of Precipitation, MM = Missing Value Source: NWS Daily Summary

Daily Weather History Graph

Daily Weather History Graph

Search for Another Location

Airport or City:

Trip Planner

Search our weather history database for the weather conditions in past years. The results will help you decide how hot, cold, wet, or windy it might be!

Date:

Astronomy

Feb. 02, 2014 Rise Set
Actual Time 7:40 AM CST 5:57 PM CST
Civil Twilight 7:12 AM CST 6:26 PM CST
Nautical Twilight 6:40 AM CST 6:57 PM CST
Astronomical Twilight 6:09 AM CST 7:29 PM CST
Moon 9:10 AM CST (2/2) 9:41 PM CST (2/2)
Length of Visible Light 11h 13m
Length of Day
10h 17m
Waxing Crescent, 11% of the Moon is Illuminated
Feb 2
Waxing Crescent
Feb 6
First Quarter
Feb 14
Full
Feb 22
Last Quarter
Mar 1
New

Hourly Weather History & Observations

Time (CST) Temp. Windchill Dew Point Humidity Pressure Visibility Wind Dir Wind Speed Gust Speed Precip Events Conditions
12:53 AM 12.0 °F - 9.0 °F 88% 30.36 in 10.0 mi Calm Calm - N/A   Clear
1:53 AM 10.0 °F -2.9 °F 7.0 °F 87% 30.36 in 10.0 mi NNW 9.2 mph - N/A   Clear
2:53 AM 8.1 °F -2.0 °F 5.0 °F 87% 30.38 in 10.0 mi NNW 5.8 mph - N/A   Clear
3:53 AM 7.0 °F -6.6 °F 3.0 °F 84% 30.38 in 10.0 mi NNW 9.2 mph - N/A   Clear
4:53 AM 7.0 °F -4.5 °F 3.0 °F 84% 30.37 in 10.0 mi North 6.9 mph - N/A   Clear
5:53 AM 7.0 °F -1.7 °F 3.0 °F 84% 30.38 in 10.0 mi North 4.6 mph - N/A   Clear
6:53 AM 3.9 °F -6.9 °F 1.0 °F 88% 30.40 in 10.0 mi NNW 5.8 mph - N/A   Clear
7:53 AM 1.9 °F -5.6 °F -0.9 °F 88% 30.43 in 10.0 mi South 3.5 mph - N/A   Clear
8:53 AM 7.0 °F 0.1 °F 3.9 °F 87% 30.42 in 10.0 mi West 3.5 mph - N/A   Clear
9:53 AM 15.1 °F 9.4 °F 8.1 °F 74% 30.42 in 10.0 mi NNW 3.5 mph - N/A   Clear
10:53 AM 17.1 °F 11.7 °F 8.1 °F 68% 30.44 in 10.0 mi SSE 3.5 mph - N/A   Clear
11:53 AM 19.9 °F 13.4 °F 9.0 °F 62% 30.42 in 10.0 mi SW 4.6 mph - 0.00 in   Clear
12:53 PM 23.0 °F 15.8 °F 10.9 °F 60% 30.38 in 10.0 mi Variable 5.8 mph - N/A   Clear
1:53 PM 26.1 °F 19.4 °F 12.9 °F 58% 30.34 in 10.0 mi South 5.8 mph - N/A   Clear
2:53 PM 27.0 °F 18.7 °F 8.1 °F 45% 30.33 in 10.0 mi SE 8.1 mph - N/A   Clear
3:53 PM 27.0 °F 18.7 °F 7.0 °F 43% 30.32 in 10.0 mi South 8.1 mph - N/A   Clear
4:53 PM 26.1 °F 15.6 °F 9.0 °F 49% 30.32 in 10.0 mi South 11.5 mph - N/A   Clear
5:53 PM 23.0 °F 13.9 °F 9.0 °F 55% 30.32 in 10.0 mi South 8.1 mph - N/A   Clear
6:53 PM 17.1 °F 6.6 °F 9.0 °F 71% 30.33 in 10.0 mi SSE 8.1 mph - N/A   Clear
7:53 PM 16.0 °F 4.4 °F 9.0 °F 74% 30.34 in 10.0 mi SE 9.2 mph - N/A   Clear
8:53 PM 15.1 °F 4.2 °F 9.0 °F 77% 30.32 in 10.0 mi SSE 8.1 mph - N/A   Clear
9:53 PM 16.0 °F 3.6 °F 9.0 °F 74% 30.30 in 10.0 mi SSE 10.4 mph - N/A   Clear
10:53 PM 15.1 °F 2.5 °F 9.0 °F 77% 30.29 in 10.0 mi South 10.4 mph - N/A   Clear
11:53 PM 14.0 °F 1.2 °F 8.1 °F 77% 30.31 in 10.0 mi South 10.4 mph - N/A   Clear